Previsão horária em Juliasdale

Hoje, 21 Junho, Segunda-feira

Tempo Temperatura Precipitação Vento Pressão Humidade
00:00 +9°C° 0 mm 1 m/s 632 mmHg 94%
01:00 +9°C° 0 mm 1 m/s 632 mmHg 94%
02:00 +9°C° 0 mm 1 m/s 631 mmHg 94%
03:00 +9°C° 0 mm 1 m/s 631 mmHg 94%
04:00 +9°C° 0 mm 1 m/s 631 mmHg 94%
05:00 +9°C° 0 mm 1 m/s 631 mmHg 94%
06:00 +10°C° 0 mm 1 m/s 632 mmHg 87%
07:00 +11°C° 0 mm 1 m/s 632 mmHg 81%
08:00 +11°C° 0 mm 1 m/s 633 mmHg 75%
09:00 +14°C° 0 mm 1 m/s 633 mmHg 64%
10:00 +16°C° 0 mm 2 m/s 634 mmHg 54%
11:00 +18°C° 0 mm 2 m/s 634 mmHg 43%
12:00 +18°C° 0 mm 2 m/s 634 mmHg 41%
13:00 +19°C° 0 mm 3 m/s 633 mmHg 39%
14:00 +19°C° 0 mm 3 m/s 633 mmHg 37%
15:00 +18°C° 0 mm 2 m/s 632 mmHg 43%
16:00 +16°C° 0 mm 2 m/s 632 mmHg 50%
17:00 +15°C° 0 mm 2 m/s 631 mmHg 56%
18:00 +13°C° 0 mm 1 m/s 632 mmHg 65%
19:00 +12°C° 0 mm 1 m/s 632 mmHg 74%
20:00 +11°C° 0 mm 1 m/s 632 mmHg 83%
21:00 +11°C° 0 mm 1 m/s 632 mmHg 86%
22:00 +10°C° 0 mm 1 m/s 632 mmHg 88%
23:00 +10°C° 0 mm 1 m/s 631 mmHg 91%

Amanhã, 22 Junho, Terça-feira

Tempo Temperatura Precipitação Vento Pressão Humidade
00:00 +9°C° 0 mm 1 m/s 631 mmHg 92%
01:00 +9°C° 0 mm 1 m/s 631 mmHg 94%
02:00 +8°C° 0 mm 1 m/s 630 mmHg 95%
03:00 +8°C° 0 mm 1 m/s 630 mmHg 94%
04:00 +8°C° 0 mm 1 m/s 630 mmHg 94%
05:00 +8°C° 0 mm 1 m/s 630 mmHg 93%
06:00 +9°C° 0 mm 1 m/s 630 mmHg 85%
07:00 +11°C° 0 mm 1 m/s 631 mmHg 76%
08:00 +13°C° 0 mm 1 m/s 632 mmHg 67%
09:00 +15°C° 0 mm 1 m/s 632 mmHg 58%
10:00 +18°C° 0 mm 1 m/s 633 mmHg 48%
11:00 +19°C° 0 mm 2 m/s 633 mmHg 39%
12:00 +19°C° 0 mm 2 m/s 633 mmHg 37%
13:00 +20°C° 0 mm 2 m/s 632 mmHg 36%
14:00 +20°C° 0 mm 3 m/s 631 mmHg 35%
15:00 +18°C° 0 mm 2 m/s 631 mmHg 43%
16:00 +17°C° 0 mm 2 m/s 631 mmHg 51%
17:00 +15°C° 0 mm 2 m/s 630 mmHg 60%
18:00 +14°C° 0.1 mm 2 m/s 630 mmHg 68%
19:00 +13°C° 0.1 mm 1 m/s 631 mmHg 76%
20:00 +12°C° 0.1 mm 1 m/s 631 mmHg 84%
21:00 +11°C° 0 mm 1 m/s 631 mmHg 86%
22:00 +11°C° 0 mm 1 m/s 630 mmHg 87%
23:00 +11°C° 0 mm 1 m/s 630 mmHg 88%

Depois de amanhã, 23 Junho, Quarta-feira

Tempo Temperatura Precipitação Vento Pressão Humidade
00:00 +10°C° 0 mm 1 m/s 630 mmHg 89%
01:00 +10°C° 0 mm 1 m/s 630 mmHg 90%
02:00 +9°C° 0 mm 1 m/s 629 mmHg 91%
03:00 +9°C° 0 mm 1 m/s 629 mmHg 91%
04:00 +9°C° 0 mm 1 m/s 629 mmHg 91%
05:00 +9°C° 0 mm 1 m/s 629 mmHg 90%
06:00 +10°C° 0 mm 1 m/s 630 mmHg 82%
07:00 +11°C° 0 mm 0 m/s 631 mmHg 74%
08:00 +13°C° 0 mm 0 m/s 632 mmHg 66%
09:00 +16°C° 0 mm 1 m/s 632 mmHg 56%
10:00 +19°C° 0 mm 1 m/s 633 mmHg 46%
11:00 +21°C° 0 mm 1 m/s 633 mmHg 35%
12:00 +22°C° 0 mm 1 m/s 632 mmHg 34%
13:00 +22°C° 0 mm 1 m/s 632 mmHg 32%
14:00 +23°C° 0 mm 1 m/s 631 mmHg 30%
15:00 +21°C° 0 mm 1 m/s 631 mmHg 35%
16:00 +20°C° 0 mm 1 m/s 631 mmHg 39%
17:00 +18°C° 0 mm 1 m/s 630 mmHg 44%
18:00 +16°C° 0 mm 1 m/s 630 mmHg 47%
19:00 +15°C° 0 mm 1 m/s 631 mmHg 50%
20:00 +14°C° 0 mm 1 m/s 631 mmHg 54%
21:00 +13°C° 0 mm 1 m/s 630 mmHg 60%
22:00 +12°C° 0 mm 1 m/s 630 mmHg 66%
23:00 +11°C° 0 mm 1 m/s 630 mmHg 73%

24 Junho, Quinta-feira

Tempo Temperatura Precipitação Vento Pressão Humidade
00:00 +10°C° 0 mm 1 m/s 629 mmHg 76%
01:00 +10°C° 0 mm 1 m/s 629 mmHg 80%
02:00 +9°C° 0 mm 1 m/s 629 mmHg 83%
03:00 +9°C° 0 mm 1 m/s 629 mmHg 83%
04:00 +9°C° 0 mm 1 m/s 629 mmHg 84%
05:00 +9°C° 0 mm 1 m/s 629 mmHg 84%
06:00 +11°C° 0 mm 1 m/s 630 mmHg 74%
07:00 +12°C° 0 mm 0 m/s 630 mmHg 64%
08:00 +14°C° 0 mm 0 m/s 631 mmHg 55%
09:00 +16°C° 0 mm 0 m/s 632 mmHg 47%
10:00 +20°C° 0 mm 1 m/s 632 mmHg 40%
11:00 +23°C° 0 mm 1 m/s 633 mmHg 32%
12:00 +23°C° 0 mm 1 m/s 632 mmHg 31%
13:00 +23°C° 0 mm 1 m/s 632 mmHg 30%
14:00 +24°C° 0 mm 1 m/s 631 mmHg 28%
15:00 +22°C° 0 mm 1 m/s 631 mmHg 33%
16:00 +20°C° 0 mm 1 m/s 630 mmHg 38%
17:00 +19°C° 0 mm 1 m/s 630 mmHg 44%
18:00 +16°C° 0 mm 1 m/s 630 mmHg 49%
19:00 +15°C° 0 mm 1 m/s 630 mmHg 54%
20:00 +13°C° 0 mm 1 m/s 630 mmHg 59%
21:00 +13°C° 0 mm 1 m/s 630 mmHg 61%
22:00 +12°C° 0 mm 1 m/s 629 mmHg 64%
23:00 +11°C° 0 mm 1 m/s 629 mmHg 67%

25 Junho, Sexta-feira

Tempo Temperatura Precipitação Vento Pressão Humidade
00:00 +11°C° 0 mm 1 m/s 629 mmHg 70%
01:00 +11°C° 0 mm 1 m/s 629 mmHg 73%
02:00 +10°C° 0 mm 1 m/s 628 mmHg 76%
03:00 +10°C° 0 mm 1 m/s 628 mmHg 77%
04:00 +10°C° 0 mm 1 m/s 628 mmHg 77%
05:00 +10°C° 0 mm 1 m/s 628 mmHg 78%
06:00 +12°C° 0 mm 1 m/s 629 mmHg 69%
07:00 +13°C° 0 mm 0 m/s 630 mmHg 60%
08:00 +15°C° 0 mm 0 m/s 631 mmHg 51%
09:00 +17°C° 0 mm 0 m/s 631 mmHg 44%
10:00 +21°C° 0 mm 1 m/s 632 mmHg 37%
11:00 +23°C° 0 mm 1 m/s 632 mmHg 30%
12:00 +24°C° 0 mm 1 m/s 631 mmHg 28%
13:00 +25°C° 0 mm 1 m/s 631 mmHg 26%
14:00 +25°C° 0 mm 1 m/s 630 mmHg 24%
15:00 +23°C° 0 mm 1 m/s 630 mmHg 29%
16:00 +21°C° 0 mm 1 m/s 629 mmHg 34%
17:00 +20°C° 0 mm 1 m/s 628 mmHg 39%
18:00 +18°C° 0 mm 1 m/s 628 mmHg 44%
19:00 +15°C° 0 mm 1 m/s 628 mmHg 49%
20:00 +14°C° 0 mm 1 m/s 628 mmHg 53%
21:00 +13°C° 0 mm 1 m/s 628 mmHg 55%
22:00 +13°C° 0 mm 1 m/s 628 mmHg 57%
23:00 +13°C° 0 mm 1 m/s 628 mmHg 58%

26 Junho, Sábado

Tempo Temperatura Precipitação Vento Pressão Humidade
00:00 +12°C° 0 mm 1 m/s 628 mmHg 61%
01:00 +12°C° 0 mm 1 m/s 627 mmHg 63%
02:00 +11°C° 0 mm 1 m/s 627 mmHg 66%
03:00 +11°C° 0 mm 1 m/s 627 mmHg 68%
04:00 +11°C° 0 mm 1 m/s 627 mmHg 69%
05:00 +11°C° 0 mm 1 m/s 627 mmHg 71%
06:00 +13°C° 0 mm 1 m/s 628 mmHg 64%
07:00 +15°C° 0 mm 1 m/s 629 mmHg 56%
08:00 +18°C° 0 mm 1 m/s 630 mmHg 49%
09:00 +20°C° 0 mm 1 m/s 630 mmHg 41%
10:00 +23°C° 0 mm 2 m/s 630 mmHg 33%
11:00 +25°C° 0 mm 2 m/s 631 mmHg 25%
12:00 +26°C° 0 mm 2 m/s 631 mmHg 23%
13:00 +26°C° 0 mm 2 m/s 630 mmHg 20%
14:00 +27°C° 0 mm 2 m/s 630 mmHg 18%
15:00 +25°C° 0 mm 1 m/s 629 mmHg 22%
16:00 +23°C° 0 mm 1 m/s 629 mmHg 25%
17:00 +21°C° 0 mm 1 m/s 628 mmHg 29%
18:00 +19°C° 0 mm 1 m/s 629 mmHg 32%
19:00 +18°C° 0 mm 1 m/s 629 mmHg 34%
20:00 +16°C° 0 mm 1 m/s 629 mmHg 37%
21:00 +15°C° 0 mm 1 m/s 629 mmHg 39%
22:00 +14°C° 0 mm 1 m/s 629 mmHg 42%
23:00 +14°C° 0 mm 1 m/s 629 mmHg 45%
Mostrar mais

Necessitamos do seu Consentimento

A Meteoprog e os seus Fornecedores de Serviços podem armazenar e aceder a dados pessoais como cookies, identificadores do dispositivo ou outras tecnologias semelhantes existentes no seu dispositivo e processar estes dados para personalizar conteúdos e anúncios, assim como funcionalidades nas redes sociais e análise de tráfego.

  • Armazenar e/ou aceder a informações no seu dispositivo

    Os cookies, identificadores do dispositivo ou outras informações podem ser armazenados ou acedidos no seu dispositivo, para os fins acima indicados.

  • Anúncios e conteúdos personalizados, medição de anúncios e conteúdos, dados sobre o público-alvo e desenvolvimento de produtos

    Os anúncios e os conteúdos podem ser personalizados com base num perfil. Podem ser adicionados dados adicionais para uma maior personalização dos anúncios e dos conteúdos. A eficácia dos anúncios e dos conteúdos pode ser medida. Podem ser obtidas informações sobre o público que visualizou os anúncios e os conteúdos. Estes dados podem ser usados para desenvolver ou melhorar sistemas, softwares ou a experiência do utilizador.

Ao clicar em "Eu concordo”, permitirá o uso de cookies, identificadores do dispositivo e web beacons mencionados ou outras tecnologias semelhantes. As configurações do navegador do seu dispositivo podem ser alteradas.

Para certos fins, podem ser invocados interesses legítimos ao invés de consentimento. Pode ler mais informação sobre este assunto na nossa Política de Privacidade e Cookies.